Location: Lango�lan
(48.1202°N, 3.2340°W)
Time: 17:37:47
(UTC+00:00)

Cosmos 1437 Rocket - Pass Details

Date: 23 October 2019
Orbit: 507 x 563 km, 81.2° (Epoch: 12 November)

Event Time Altitude Azimuth Distance (km) Brightness Sun altitude
Rises 05:40:12 0° 215° (SW) 2,603 6.0 -11.2°
Reaches altitude 10° 05:42:30 10° 226° (SW) 1,721 5.0 -10.9°
Maximum altitude 05:45:51 30° 289° (WNW) 938 3.5 -10.3°
Drops below altitude 10° 05:49:15 10° 352° (N) 1,738 5.2 -9.7°
Sets 05:51:35 0° 3° (N) 2,634 6.3 -9.4°
